Location: Cheyres
(46.8153°N, 6.7877°E)
Time: 12:24:46
(UTC+00:00)

SPOT 5 - Pass Details

Date: 11 May 2021
Orbit: 623 x 815 km, 98.2° (Epoch: 18 June)

Event Time Altitude Azimuth Distance (km) Brightness Sun altitude
Exits shadow 19:59:16 11° 114° (ESE) 2,212 4.8 -9.8°
Maximum altitude 20:03:07 26° 62° (ENE) 1,528 4.4 -10.3°
Drops below altitude 10° 20:07:24 10° 8° (N) 2,393 6.0 -10.8°
Sets 20:10:07 0° 356° (N) 3,342 7.1 -11.2°
